Hourly Data Report for April 19, 2017

All times are specified in Local Standard Time (LST). Add 1 hour to adjust for Daylight Saving Time where and when it is observed.

TORONTO CITY
ONTARIO

43°40'00.000" N
79°24'00.000" W
112.50 m
6158355
71508
XTO

Download Data

Hourly Data (April 2017)
Hourly Data Report for April 19, 2017
TIME Temp Definition
°C
Dew Point Definition
°C
Rel Hum Definition
%
Wind Dir Definition
10's deg

Wind Spd Definition
km/h
Visibility Definition
km
Stn Press Definition
kPa
Hmdx Definition


Wind Chill Definition


Weather Definition


00:00 7.0 -2.1 52 LegendMM LegendMM   101.00     LegendNANA
01:00 6.7 -1.2 57 LegendMM LegendMM   100.88     LegendNANA
02:00 6.8 -0.8 58 LegendMM LegendMM   100.75     LegendNANA
03:00 6.7 0.1 63 LegendMM LegendMM   100.68     LegendNANA
04:00 6.7 1.1 68 LegendMM LegendMM   100.55     LegendNANA
05:00 6.5 1.7 71 LegendMM LegendMM   100.48     LegendNANA
06:00 5.9 2.5 79 LegendMM LegendMM   100.42     LegendNANA
07:00 7.1 3.0 75 LegendMM LegendMM   100.38     LegendNANA
08:00 9.3 4.7 73 LegendMM LegendMM   100.35     LegendNANA
09:00 10.1 4.8 70 LegendMM LegendMM   100.30     LegendNANA
10:00 10.6 6.5 76 LegendMM LegendMM   100.23     LegendNANA
11:00 12.0 7.3 73 LegendMM LegendMM   100.22     LegendNANA
12:00 13.7 8.8 72 LegendMM LegendMM   100.14     LegendNANA
13:00 15.0 10.4 74 LegendMM LegendMM   100.12     LegendNANA
14:00 14.6 11.9 84 LegendMM LegendMM   100.11     LegendNANA
15:00 15.6 13.1 85 LegendMM LegendMM   100.08     LegendNANA
16:00 15.8 13.0 84 LegendMM LegendMM   100.10     LegendNANA
17:00 16.2 13.1 82 LegendMM LegendMM   100.16     LegendNANA
18:00 18.9 8.9 52 LegendMM LegendMM   100.22     LegendNANA
19:00 16.8 8.3 57 LegendMM LegendMM   100.30     LegendNANA
20:00 14.8 7.3 61 LegendMM LegendMM   100.42     LegendNANA
21:00 12.9 6.8 66 LegendMM LegendMM   100.49     LegendNANA
22:00 11.7 6.0 68 LegendMM LegendMM   100.54     LegendNANA
23:00 11.3 5.7 69 LegendMM LegendMM   100.54     LegendNANA

Notes on Data Quality.

Legend

  • E = Estimated
  • M = Missing
  • NA = Not Available
Date modified: